ALMUNTHER

导读

ALMUNTHER卫星计划于2025年3月15日发射,目前其发射国家尚未最终确定(标注为TBD)。作为一颗规划中的人造卫星,它的成功发射将为空间探索、对地观测或相关科学研究提供新的数据支撑,目前具体任务细节和技术参数暂未公开,后续进展值得持续关注。

Basic Information
目录编号:
63240
目录名称:
ALMUNTHER
国际标识:
2025-052AG
轨道中心:
EARTH
卫星名称:
ALMUNTHER
卫星全名:
ALMUNTHER
卫星状态:
在轨 (已飞行539 天)
发射日期:
2025-03-15 UTC
国别 :
(BH)
星等 :
--
Orbit Information
数据来源 国际轨道数据
星历时间: 2026-09-05T11:09:06+0800
6小时前
查看轨道信息
半长轴: 6841.245km
偏心率: 0.0004804
轨道倾角: 97.375°
近地点辐角 205.082°
升交点赤经 142.807°
平近点角 155.019°
近地点: 459.821km
远地点: 466.395km
周期: 93.856分钟
每日圈数: 15.34264
Detailed Information
使用方式:
暂无
2D Orbit Map
3D Orbit Map
Orbit Altitude Analysis Chart
Orbit Inclination Analysis Chart
Orbit Comprehensive Analysis Chart
View Comprehensive Chart
Conjunction Data List
Event ID Objects TCA Miss Dist (km) Collision Risk Probability Collision Risk Index (CRI) Action
CDM_260905-051705-175306-324023
2026-09-05T
05:17:00+0000
0.134 km
中距离
9.546081E-4 高风险 0.95
CDM_260903-124806-324006-620323
2026-09-03T
12:48:47+0000
0.385 km
远距离
2.11706E-4 高风险 0.82
CDM_260903-160305-816806-324023
2026-09-03T
16:03:38+0000
0.555 km
远距离
9.759062E-5 中风险 0.75
CDM_260905-214405-285606-324024
2026-09-05T
21:44:44+0000
0.698 km
远距离
8.343412E-5 中风险 0.73
CDM_260907-132106-324006-525221
2026-09-07T
13:21:43+0000
0.735 km
远距离
7.286298E-5 中风险 0.72
CDM_260906-170706-324006-903021
2026-09-06T
17:07:13+0000
0.625 km
远距离
6.066947E-5 中风险 0.71
CDM_260907-144706-324006-760721
2026-09-07T
14:47:33+0000
0.939 km
远距离
3.409608E-5 中风险 0.66
CDM_260906-213906-324006-773321
2026-09-06T
21:39:48+0000
1.084 km
极远距离
2.057399E-5 中风险 0.61
CDM_260905-102505-317906-324023
2026-09-05T
10:25:25+0000
1.081 km
极远距离
1.877586E-5 中风险 0.6
CDM_260906-201706-324006-840321
2026-09-06T
20:17:05+0000
1.139 km
极远距离
1.530712E-5 中风险 0.59